Regional Weather Roundup
Issued by NWS

Home | Current Version | Previous Version | Graphics & Text | Print | Product List | Glossary Off
Versions: 1 2 3 4 5 6 7 8 9 10 11 12 13 14 15 16 17 18 19 20 21 22 23 24 25 26 27 28 29 30 31 32 33 34 35 36 37 38 39 40 41 42 43 44 45 46 47 48 49 50

000
ASUS43 KMKX 310700
RWRWI

WISCONSIN REGIONAL WEATHER ROUNDUP
NATIONAL WEATHER SERVICE MILWAUKEE/SULLIVAN WI
200 AM CDT MON AUG 31 2015

NOTE: "FAIR" INDICATES FEW OR NO CLOUDS BELOW 12,000 FEET WITH NO
SIGNIFICANT WEATHER AND/OR OBSTRUCTIONS TO VISIBILITY.

WIZ001-002-006>008-014>016-023>028-310800-
NORTHWEST WISCONSIN

CITY           SKY/WX    TMP DP  RH WIND       PRES   REMARKS
SUPERIOR ARPT  CLEAR     66  65  96 SW6       29.88S
ASHLAND        PTCLDY    65  65 100 S8        29.91S
HAYWARD        CLOUDY    65  63  93 S8        29.95S
SIREN          CLEAR     66  64  92 S7        29.93S
CUMBERLAND     PTCLDY    61  59  94 S6        29.96S FOG
RICE LAKE      PTCLDY    62  60  94 SE6       29.98S
CHETEK         CLEAR    N/A N/A N/A E3        29.98S
LADYSMITH      FOG       63  62  96 S5        30.00S VSB 1/2
EAU CLAIRE     NOT AVBL
MENOMONIE      CLEAR     60  60  98 SE5       29.98S FOG
NEW RICHMOND   CLEAR     63  63  98 S6        29.96S
OSCEOLA        PTCLDY    64  64 100 S6        29.97S
$$

WIZ003>005-009-010-017-018-310800-
NORTH CENTRAL WISCONSIN

CITY           SKY/WX    TMP DP  RH WIND       PRES   REMARKS
MANITOWISH WTR CLOUDY    64  64 100 SW8       29.98S
ARBOR VITAE    CLOUDY    62  61  97 CALM      30.00R FOG
WOODRUFF       CLOUDY    62  61  97 CALM      30.00R FOG
RHINELANDER    CLOUDY    64  62  93 SW9       30.01S FOG
EAGLE RIVER    CLOUDY    64  64 100 SW7       29.99S
LAND O LAKES   MOCLDY    63  63  98 SW3       30.00R
PHILLIPS       CLOUDY    63  63 100 SW6       29.99R
TOMAHAWK       CLOUDY    61  60  97 CALM      30.01R FOG
MEDFORD        CLOUDY    61  61 100 S5        30.01S FOG
MERRILL        PTCLDY    58  58 100 SW3       30.02R FOG
$$

WIZ029-030-035-036-043>047-310800-
CENTRAL WISCONSIN

CITY           SKY/WX    TMP DP  RH WIND       PRES   REMARKS
WAUSAU         PTCLDY    63  62  97 SW6       30.00S
MOSINEE        CLEAR     59  59 100 SW5       30.02S FOG
MARSHFIELD     FOG       61  58  90 SW5       30.01S VSB 1/4
STEVENS POINT  FOG       59  59  99 CALM      30.02R VSB 3/4
WAUPACA        FOG       60  60  97 CALM      30.01S VSB 1/2
WAUTOMA        NOT AVBL
WISC RAPIDS    FOG       59  57  93 SW3       30.02S VSB 1/4
CAMP DOUGLAS   FOG       52  52 100 SE2       30.01S VSB 1
$$

WIZ011>013-019>022-031-037>040-048>050-310800-
NORTHEAST WISCONSIN

CITY           SKY/WX    TMP DP  RH WIND       PRES   REMARKS
ANTIGO         FOG       58  58 100 CALM      30.02R VSB 1/4
SHAWANO        CLEAR     64  62  94 SW3       29.99S FOG
OCONTO         CLEAR     60  60 100 CALM      29.98S
STURGEON BAY   CLEAR     63  57  82 SW7       30.01S
GREEN BAY      CLEAR     63  61  93 S3        30.00S FOG
MANITOWOC      FOG       59  57  94 MISG      30.01S VSB 3/4
APPLETON       CLEAR     61  61 100 S6        29.99S
CLINTONVILLE   FOG       59  59 100 SW5       30.00S VSB 1
OSHKOSH        CLEAR     62  60  93 S5        30.00F
$$

WIZ032>034-041-042-053>061-310800-
SOUTHWEST WISCONSIN

CITY           SKY/WX    TMP DP  RH WIND       PRES   REMARKS
LA CROSSE      CLEAR     62  62 100 SE6       30.00R FOG
SPARTA         CLEAR     55  54  95 CALM      30.02S
VIROQUA          N/A     61  61 100 CALM      30.03R
BOSCOBEL       FOG       59  58  96 CALM      30.02S VSB 1/4
PRAIRIE DU CHI FOG       60  59  96 CALM      30.01S VSB 1/2
PLATTEVILLE    CLEAR     62  61  99 S5        30.03S
$$

WIZ056-057-062-063-064-067-068-310800-
SOUTH CENTRAL WISCONSIN

CITY           SKY/WX    TMP DP  RH WIND       PRES   REMARKS
REEDSBURG      CLEAR     61  61 100 CALM      30.02R
BARABOO/DELLS  CLEAR     62  60  94 CALM      30.02S FOG
LONE ROCK      FOG       59  58  96 CALM      30.02F VSB 1/2
MINERAL POINT  CLEAR     63  63 100 S5        30.04S FOG
MADISON        CLEAR     63  61  93 CALM      30.02S
MIDDLETON        N/A     60  60 100 CALM      30.03S VSB 1
WATERTOWN      CLEAR     59  59 100 CALM      30.02F FOG
MONROE         FOG       61  61 100 S6        30.03F VSB 1
JANESVILLE     CLEAR     61  59  94 CALM      30.02F FOG
$$

WIZ051-052-058>065-066-070>072-310800-
SOUTHEAST WISCONSIN

CITY           SKY/WX    TMP DP  RH WIND       PRES   REMARKS
MILWAUKEE      CLEAR     62  60  93 S3        30.02F FOG
WAUKESHA       CLEAR     61  59  94 S5        30.04S
MILWAUKEE/TIMM CLEAR     59  57  94 S5        30.03S FOG
RACINE         CLEAR     62  60  93 SW5       30.04S FOG
BURLINGTON     FOG       56  56  99 CALM      30.03F VSB 3/4
KENOSHA        FOG       60  59  96 S5        30.03F VSB 1/4
FOND DU LAC    CLEAR     62  60  93 SW3       30.01F
SHEBOYGAN      FOG       57  57 100 SW3       30.01F VSB 1/4
WEST BEND      CLEAR     59  55  88 CALM      30.02F FOG
JUNEAU         FOG       59  59  99 S3        30.04S VSB<1/4
$$

LSZ147-162-310800-
LAKE SUPERIOR

STATION/POSITION TIME  TEMP    WIND        PRES    WAVE
                       AIR SEA DIR/SP/G            HT/PER
                 (UTC) (F)     (DEG/KT/KT) (MB)    (FT/S)
W MID LAKE BUOY  0550   60 55  210/ 10/ 10 1011.9R   1
DEVILS ISLAND    0600   68     200/  3/  4 1011.9R
PORT WING        0600   68     190/  4/  5 1012.5R
SAXON HARBOR     0640   69     190/  5/ 11 1012.2S
$$

LMZ867-665-643>646-310800-
LAKE MICHIGAN

STATION/POSITION TIME  TEMP    WIND        PRES    WAVE
                       AIR SEA DIR/SP/G            HT/PER
                 (UTC) (F)     (DEG/KT/KT) (MB)    (FT/S)
CHAMBERS ISLAND  0600   65     190/  6/ 11 1014.9S
S GREEN BAY BUOY 0600   65 63  200/  8/ 10 1016.6
N MID LAKE BUOY  0550   63 65  210/ 16/ 17 1014.5F   3/ 5
NORTHPORT PIER   0602   62     150/  2/  6 1014.6F
SHEBOYGAN LAKESH 0600   62     230/  3/  4 1016.5F
PORT WASHINGTON  0600   56     190/  3/  4 1017.3
ATWATER BUOY     0600   55 50  170/  4/  4 1018.0R
MILWAUKEE LAKESH 0600   64     210/  6/  6   N/A
S MID LAKE BUOY  0550   68 68  180/  8/ 10 1016.6F   0
KENOSHA   LAKESH 0600   65     210/  5/  7 1016.9S
$$

TC  - TEMPERATURE IN CELSIUS
VSB - VISIBILITY IN STATUTE MILES
WCI - WIND CHILL INDEX
HX  - HEAT INDEX




USA.gov is the U.S. government's official web portal to all federal, state and local government web resources and services.